TimeEDT,TemperatureF,Dew PointF,Humidity,Sea Level PressureIn,VisibilityMPH,Wind Direction,Wind SpeedMPH,Gust SpeedMPH,PrecipitationIn,Events,Conditions,WindDirDegrees,DateUTC
12:53 AM,66.0,62.1,87,30.17,10.0,SSE,4.6,-,N/A,,Clear,160,2013-06-22 04:53:00
1:53 AM,66.9,60.1,79,30.16,10.0,Calm,Calm,-,N/A,,Clear,0,2013-06-22 05:53:00
2:53 AM,63.0,59.0,87,30.17,10.0,Calm,Calm,-,N/A,,Clear,0,2013-06-22 06:53:00
3:53 AM,62.1,59.0,90,30.17,10.0,Calm,Calm,-,N/A,,Clear,0,2013-06-22 07:53:00
4:53 AM,62.1,59.0,90,30.15,9.0,Calm,Calm,-,N/A,,Clear,0,2013-06-22 08:53:00
5:53 AM,61.0,57.9,90,30.15,7.0,Calm,Calm,-,N/A,,Clear,0,2013-06-22 09:53:00
6:53 AM,63.0,60.1,90,30.15,7.0,Calm,Calm,-,N/A,,Clear,0,2013-06-22 10:53:00
7:53 AM,68.0,62.1,81,30.17,10.0,Calm,Calm,-,N/A,,Clear,0,2013-06-22 11:53:00
8:53 AM,73.0,62.1,68,30.19,10.0,Calm,Calm,-,N/A,,Clear,0,2013-06-22 12:53:00
9:53 AM,75.9,63.0,64,30.21,10.0,SSW,5.8,-,N/A,,Clear,210,2013-06-22 13:53:00
10:53 AM,77.0,61.0,58,30.23,10.0,WSW,9.2,-,N/A,,Mostly Cloudy,250,2013-06-22 14:53:00
11:53 AM,78.1,61.0,56,30.22,10.0,WSW,11.5,-,N/A,,Partly Cloudy,240,2013-06-22 15:53:00
12:53 PM,80.1,64.0,58,30.22,10.0,SW,10.4,-,N/A,,Partly Cloudy,230,2013-06-22 16:53:00
1:53 PM,82.0,64.9,56,30.19,10.0,Calm,Calm,-,N/A,,Clear,0,2013-06-22 17:53:00
2:53 PM,84.0,66.0,55,30.18,10.0,South,4.6,-,N/A,,Clear,190,2013-06-22 18:53:00
3:12 PM,84.2,66.2,55,30.21,10.0,Variable,5.8,-,N/A,,Partly Cloudy,0,2013-06-22 19:12:00
3:53 PM,84.0,64.0,51,30.16,10.0,SSW,5.8,-,N/A,,Clear,200,2013-06-22 19:53:00
4:53 PM,84.0,63.0,49,30.13,10.0,SSW,5.8,-,N/A,,Clear,200,2013-06-22 20:53:00
5:53 PM,84.0,64.0,51,30.09,10.0,South,5.8,-,N/A,,Clear,170,2013-06-22 21:53:00
6:53 PM,82.9,64.0,53,30.08,10.0,South,5.8,-,N/A,,Clear,170,2013-06-22 22:53:00
7:53 PM,81.0,64.9,58,30.08,10.0,SSW,3.5,-,N/A,,Clear,200,2013-06-22 23:53:00
8:53 PM,77.0,66.0,69,30.10,10.0,Calm,Calm,-,N/A,,Clear,0,2013-06-23 00:53:00
9:53 PM,73.0,66.9,81,30.10,10.0,Calm,Calm,-,N/A,,Clear,0,2013-06-23 01:53:00
10:53 PM,71.1,66.0,84,30.12,10.0,Calm,Calm,-,N/A,,Clear,0,2013-06-23 02:53:00
11:53 PM,70.0,66.0,87,30.13,8.0,South,4.6,-,N/A,,Clear,170,2013-06-23 03:53:00